COSMOS 2058

Last updated on Mon Sep 14 2026 00:02:08 GMT+0000 (Coordinated Universal Time)

1 20465U 90010A 26256.40564457 .00002617 00000+0 14884-3 0 9996 2 20465 82.4658 222.3200 0011260 54.1673 306.0602 15.12420039970605
UTC large
Height (km)
Speed (km/s)
/
Latitude / Longitude
Inclination (degrees)
Orbital Period (minutes)
Azimuth
Elevation
Range (km)
Doppler Factor

Next 0 passes for location: London (51.5072 / 0.1276)

No passes found over London.
COSMOS 2058